Theta_e
303 304 304 304 305 305 305 306 306 306 306 306 307 307 308 308 309 318 318 317 319 323 330 331 330 330 330 330 330 331 332 332 331 331 332 331 331 330 328 327 325 324 324 325 325
302 301 301 302 302 303 304 305 305 305 305 305 306 307 307 307 315 317 317 317 316 319 329 331 331 329 330 330 330 331 331 329 329 329 330 330 330 330 329 327 326 325 324 323 323
306 305 303 301 300 300 300 303 305 305 305 306 306 306 307 308 320 319 321 317 315 317 324 329 330 330 330 330 330 330 330 327 327 326 328 329 328 328 328 327 327 325 324 325 324
308 308 307 305 302 300 299 300 302 303 305 305 305 306 307 313 316 324 318 317 315 319 321 325 329 331 332 331 330 331 329 328 326 326 329 328 328 327 326 326 325 324 323 325 325
308 308 308 308 307 304 301 300 299 299 301 304 304 305 311 317 317 318 318 320 318 319 322 324 327 329 331 331 330 330 329 327 326 326 329 327 327 327 326 325 324 323 323 323 325
308 308 308 308 308 308 307 305 302 299 299 301 303 304 315 314 313 314 320 325 326 322 322 323 327 328 329 330 328 329 329 327 326 327 328 326 327 325 326 324 323 324 323 323 324
309 308 308 307 307 307 306 306 305 301 300 299 300 309 314 314 314 315 314 315 318 323 324 322 323 326 327 328 327 328 328 327 327 327 328 327 326 327 326 326 325 324 325 325 325
307 309 309 308 307 307 306 305 305 304 301 299 300 313 316 313 314 313 316 319 321 320 318 323 322 324 327 327 327 327 328 330 328 328 327 326 328 328 327 326 326 325 326 325 325
305 307 308 309 308 307 307 307 305 305 302 301 313 317 316 315 314 314 315 315 315 321 320 322 324 324 326 327 328 329 329 328 328 328 328 327 328 328 327 326 326 326 326 326 325
304 305 306 306 307 308 307 307 307 306 313 316 314 320 319 316 315 316 315 315 317 321 323 324 326 325 327 328 330 331 330 329 329 330 330 328 328 328 328 326 325 326 327 327 326
304 303 304 304 305 307 308 310 314 319 317 317 317 317 316 315 315 316 317 317 317 318 321 324 327 327 328 328 328 329 330 329 330 329 329 329 329 329 328 327 326 325 327 328 328
303 304 303 304 304 306 308 312 313 311 316 321 320 319 317 317 318 317 319 318 318 318 318 326 327 326 326 327 328 330 330 329 329 329 329 330 329 328 326 326 326 326 327 328 329
300 302 303 303 304 307 310 311 310 310 314 314 315 318 318 318 318 319 319 318 317 319 319 325 327 326 326 327 329 330 330 329 331 330 330 330 329 328 327 327 326 325 326 328 330
301 299 302 303 305 310 311 310 309 310 315 316 317 316 317 318 318 318 319 321 318 319 321 324 326 326 326 328 329 330 328 328 329 330 331 328 330 328 327 326 325 326 327 328 330
303 297 301 303 307 312 310 308 309 311 319 320 320 317 318 318 317 317 319 321 320 319 321 323 325 326 327 328 328 329 328 328 328 329 330 328 329 328 327 326 325 326 326 330 330
304 301 300 304 306 308 310 309 309 318 318 319 320 319 318 317 318 319 318 321 321 320 321 322 324 325 327 327 328 328 327 327 328 329 330 328 329 328 327 325 325 326 328 330 330
305 304 300 305 309 308 308 311 314 317 317 320 320 321 319 318 318 318 318 320 323 321 324 322 323 326 326 328 328 328 328 330 331 332 331 328 328 328 326 325 325 326 328 332 330
303 304 300 302 307 306 308 313 316 316 318 320 320 321 320 320 319 319 319 320 322 323 324 324 325 326 328 329 328 327 328 328 331 332 331 329 329 328 326 325 326 329 333 333 330
304 304 302 303 306 306 309 315 314 316 318 319 319 320 321 321 320 320 320 320 321 324 325 325 326 325 327 327 328 328 328 327 329 328 329 330 329 328 325 324 327 331 332 332 330
303 303 303 303 306 306 309 311 312 313 315 318 320 320 322 322 322 321 322 321 321 321 324 326 327 326 326 327 327 327 327 328 328 332 333 330 329 328 326 326 330 333 333 331 329
302 304 304 304 306 308 308 310 310 312 314 314 318 320 321 322 322 322 321 322 322 321 321 324 328 328 327 329 328 326 326 328 329 329 331 332 330 329 327 326 328 333 333 331 329
303 308 305 306 309 307 308 308 309 309 311 312 313 315 319 322 323 323 323 322 322 322 322 325 328 330 328 328 328 327 326 328 330 331 329 331 331 328 327 327 328 332 333 330 329
304 306 306 306 308 310 307 307 307 309 310 311 312 314 317 320 324 323 323 322 322 322 325 327 329 332 331 329 328 328 326 327 330 331 331 331 330 328 328 327 329 330 332 331 329
305 309 308 308 308 308 309 309 307 308 309 311 312 312 313 317 321 324 324 322 322 321 327 329 330 331 332 332 328 328 326 326 328 332 330 330 329 329 329 328 328 331 332 332 330
305 306 304 308 307 306 306 309 310 308 310 310 311 313 313 319 322 323 323 323 322 323 325 331 334 328 328 327 327 327 326 326 327 328 330 330 329 329 328 329 328 331 332 332 331
305 304 305 307 304 306 306 307 307 308 308 310 310 311 313 317 320 322 322 325 324 321 322 332 333 328 327 326 326 328 327 326 325 326 327 329 329 328 327 327 328 329 333 332 332
304 304 304 305 306 309 307 308 307 308 308 309 310 309 311 313 315 318 319 321 326 324 325 327 330 332 329 325 325 328 327 327 326 325 326 328 328 328 327 327 327 329 331 332 332
Wind_Speed
16 16 17 17 16 16 17 16 17 17 16 16 18 17 17 20 18 10 16 13 20 11 17 18 19 18 20 17 18 10 13 14 18 16 11 8 13 3 3 10 5 4 6 6 7
16 17 17 18 18 18 17 17 17 17 17 18 18 19 19 20 20 24 28 20 21 22 21 23 19 19 15 18 16 14 13 19 14 14 12 16 17 16 7 9 8 8 6 4 8
18 18 18 19 19 19 19 17 18 18 19 19 19 19 19 19 19 19 5 24 27 26 29 27 22 19 21 19 19 18 16 18 15 17 12 16 16 5 9 10 8 4 7 13 12
20 19 19 20 20 20 20 20 20 20 20 18 19 18 18 11 9 6 5 10 24 26 28 29 22 22 23 23 20 20 18 18 17 18 11 14 8 9 8 11 5 5 4 9 12
19 20 21 20 20 21 20 20 20 20 20 19 18 16 10 12 17 12 7 1 12 23 31 26 26 25 26 24 20 17 17 21 19 16 14 12 10 11 12 8 3 5 7 10 11
18 19 19 20 20 21 21 21 20 19 19 19 17 13 6 22 14 18 19 8 10 21 26 27 23 24 23 24 20 21 22 18 16 16 14 10 15 3 10 2 7 9 10 10 12
19 19 18 20 22 23 22 23 22 20 19 19 14 9 14 25 10 11 16 22 23 20 18 27 30 22 22 24 20 20 18 19 17 16 15 10 15 16 16 7 8 11 12 14 13
20 20 19 19 21 23 25 26 25 21 21 17 13 11 13 19 20 31 20 14 14 21 28 23 29 28 22 18 21 19 21 19 20 18 15 9 18 14 12 9 12 14 13 12 12
19 19 18 19 19 24 27 30 26 21 19 11 9 15 19 10 32 33 28 31 27 17 24 24 19 26 20 20 20 18 16 21 19 14 16 16 19 18 10 12 12 14 12 12 12
19 20 20 19 21 23 26 29 19 16 6 9 16 6 19 20 23 21 28 32 20 17 15 18 15 19 19 19 20 19 22 17 17 14 13 16 19 17 12 15 14 14 13 12 14
17 18 20 20 20 21 22 16 6 7 24 17 14 18 7 16 8 11 20 25 22 20 23 24 18 26 33 28 24 23 18 17 11 9 13 13 17 20 15 15 17 15 12 12 13
18 18 17 18 19 19 18 11 7 6 10 28 27 26 28 7 8 18 17 19 25 27 27 21 27 28 28 27 26 23 21 16 15 13 9 13 19 20 19 18 16 14 10 11 13
19 17 17 17 19 18 21 22 6 8 9 21 29 28 29 25 23 18 25 24 26 29 30 31 27 28 27 27 25 23 21 17 18 12 9 14 23 20 7 10 10 9 9 9 13
18 17 14 14 13 15 18 14 10 5 7 19 21 26 28 26 31 29 31 26 20 31 30 28 28 27 30 27 25 22 19 18 14 13 13 14 14 15 17 7 10 12 13 10 12
19 16 13 10 20 13 7 3 5 5 8 8 30 9 22 33 8 33 32 26 30 23 27 31 26 28 27 29 26 20 18 17 14 15 18 19 11 14 10 10 7 5 4 9 13
19 16 12 13 17 20 12 6 8 9 14 9 13 17 22 32 34 12 36 28 24 26 28 31 28 24 27 27 20 20 17 17 11 11 15 19 14 15 10 3 3 5 4 8 12
20 17 14 15 12 12 17 9 8 15 17 14 18 18 26 25 35 27 34 31 28 29 29 28 33 27 22 20 22 23 14 11 12 13 14 17 12 9 13 4 3 5 6 9 11
18 18 17 19 17 11 14 13 16 24 33 4 21 21 28 26 32 33 31 29 34 30 18 23 27 30 23 25 23 22 19 13 15 14 14 11 7 3 5 5 4 3 4 7 13
14 15 19 20 17 9 5 14 21 24 23 32 14 20 26 28 19 31 31 35 34 33 28 24 28 26 26 23 25 19 20 20 22 19 13 6 8 9 7 8 8 2 2 9 15
7 9 19 18 17 11 5 23 27 26 26 22 34 19 22 29 24 34 31 34 35 37 28 16 19 25 28 20 26 23 18 19 15 19 17 13 11 4 11 10 8 7 7 13 15
6 3 8 18 17 6 7 20 28 29 30 16 18 21 26 25 29 24 29 20 35 36 33 30 18 23 25 25 26 21 21 17 15 14 13 11 8 8 6 5 2 8 11 15 16
6 3 8 22 7 4 13 29 22 32 23 18 19 23 24 24 26 30 32 33 25 33 37 32 15 17 29 24 26 26 26 22 11 18 12 12 3 11 7 5 7 4 12 16 16
2 4 8 15 8 14 19 27 28 28 30 26 17 18 23 20 16 28 29 30 18 32 34 27 18 17 22 20 24 27 25 23 19 14 15 12 13 13 12 7 5 6 11 15 17
2 3 4 6 9 11 19 21 23 21 31 19 27 20 21 24 22 15 28 25 21 19 25 23 21 26 21 26 22 25 25 25 23 17 16 16 16 13 11 11 11 8 8 14 17
4 4 7 3 9 14 16 17 19 23 24 22 21 24 24 18 19 22 14 26 20 17 21 26 26 26 26 21 25 23 27 27 27 24 21 18 18 15 11 13 11 12 10 13 17
1 3 3 8 9 13 10 18 22 21 16 23 22 21 19 19 20 18 13 19 22 20 24 23 24 24 26 26 24 27 26 26 27 25 23 21 17 12 8 9 13 11 13 12 16
4 3 3 4 3 8 10 15 10 12 16 18 21 22 24 23 13 24 18 20 15 21 21 24 20 23 23 25 26 23 27 28 25 22 22 21 20 18 12 13 12 11 12 12 15
Wind_Direction
329 329 329 327 325 328 326 327 329 329 328 325 325 329 331 327 315 277 240 234 214 228 176 187 195 207 217 230 232 242 262 264 272 287 307 312 281 262 148 280 199 274 292 41 137
329 326 326 326 325 322 314 316 314 317 317 322 327 328 330 329 305 272 267 227 221 198 193 196 199 209 221 230 233 237 250 262 293 310 305 299 302 305 282 248 226 218 222 213 196
338 337 331 324 320 319 318 311 306 313 313 319 322 322 328 326 285 274 280 227 214 209 207 209 211 213 229 229 231 227 250 274 292 289 295 312 290 299 274 278 310 290 252 186 205
327 332 334 329 322 317 314 314 313 308 305 310 314 318 318 306 257 57 53 226 216 203 223 220 221 222 229 235 229 240 243 274 267 274 277 277 315 294 282 279 339 303 293 186 210
317 319 321 326 326 324 320 312 306 303 303 301 301 312 324 244 244 277 260 101 188 204 221 227 220 222 229 238 247 240 249 254 269 254 266 270 276 278 296 315 269 261 236 226 215
305 311 308 312 315 318 316 314 307 302 298 291 290 300 250 258 257 244 224 197 191 204 219 236 228 227 239 242 240 236 242 257 263 244 257 242 264 209 282 224 239 247 246 230 223
300 296 304 309 313 316 316 312 306 302 291 282 280 275 259 245 251 244 232 231 226 224 230 230 241 234 235 249 246 252 258 260 255 255 247 229 260 248 255 207 253 237 235 233 216
298 299 291 296 308 314 316 313 306 293 287 277 270 239 252 257 247 245 239 223 231 233 227 235 229 247 241 245 253 248 246 253 246 215 228 216 261 263 246 235 248 248 229 234 218
307 304 299 295 294 303 310 311 306 294 280 260 213 221 259 257 226 234 231 233 234 240 222 228 230 231 238 240 234 224 243 242 255 173 228 206 261 291 289 283 268 262 252 229 214
308 306 306 299 305 299 303 308 301 274 224 208 246 226 246 243 233 236 227 227 219 210 214 217 222 218 225 222 230 224 228 231 261 212 211 252 258 261 271 277 267 241 251 224 213
304 299 301 299 297 300 309 316 216 205 209 209 194 215 265 216 214 216 215 201 209 213 212 205 210 209 212 219 229 246 257 253 243 247 250 276 277 285 283 271 271 253 244 232 210
303 303 302 301 296 292 291 258 334 337 276 227 254 233 245 242 238 221 184 195 199 208 206 205 221 215 217 222 231 241 252 255 262 259 268 289 283 290 282 276 268 249 242 220 199
292 296 300 303 301 277 257 250 289 296 258 248 231 232 226 231 233 232 195 199 201 210 204 216 215 220 212 224 222 228 242 244 260 271 243 271 268 258 257 271 245 235 255 215 195
301 287 298 306 281 260 248 249 234 263 268 252 211 234 218 218 236 226 203 203 217 215 212 219 223 210 225 218 223 228 227 247 269 275 266 274 284 294 273 264 256 234 201 208 181
294 285 289 269 306 287 52 247 258 229 259 244 204 167 198 198 170 200 216 207 218 205 211 220 219 217 213 223 219 233 235 239 229 252 270 264 264 273 267 221 251 249 259 154 170
283 284 272 264 254 255 291 279 249 221 233 231 144 188 192 200 215 196 201 208 220 223 220 229 213 223 219 216 218 225 227 254 265 259 257 257 253 266 271 128 303 301 182 159 171
269 269 251 258 256 242 286 233 209 224 213 230 185 192 200 193 200 223 189 199 205 209 217 212 228 211 224 213 213 220 210 228 230 233 248 247 237 284 298 311 327 329 320 146 163
272 256 251 243 245 252 293 215 229 222 224 244 183 199 206 190 201 209 187 202 208 207 204 209 213 214 203 211 209 205 211 224 219 234 247 141 227 263 217 61 264 289 347 138 168
265 240 243 233 230 207 245 224 220 231 215 245 193 205 208 198 195 206 203 206 202 205 221 202 217 203 203 201 220 189 214 225 253 284 289 217 212 198 192 212 199 167 175 155 165
192 224 245 223 202 173 242 230 239 255 278 262 238 228 215 208 203 197 199 211 211 209 215 211 211 218 198 205 218 220 200 217 229 246 261 245 235 244 166 211 117 151 166 159 164
193 215 240 190 165 199 227 231 237 262 270 333 314 294 229 218 204 202 210 207 207 202 216 230 212 201 187 197 206 203 224 204 244 224 237 248 261 119 152 159 323 147 159 170 171
185 222 154 151 191 212 228 228 251 258 262 294 302 290 284 257 216 220 210 211 201 207 204 214 215 226 200 200 209 214 210 207 216 222 249 274 245 112 161 205 183 196 155 173 179
205 252 155 184 221 228 247 247 240 264 258 261 273 293 325 301 291 220 231 219 191 204 199 205 212 218 199 202 202 222 210 217 219 243 235 219 238 183 167 197 194 236 153 173 181
214 251 175 214 234 268 270 268 250 253 254 265 277 283 287 278 265 271 212 223 222 207 202 200 211 211 213 199 192 208 222 205 217 218 230 242 260 155 175 197 213 186 166 181 185
258 250 292 245 240 247 254 281 285 237 254 246 248 259 266 283 257 249 233 220 202 205 207 191 218 208 227 204 200 205 214 216 213 220 223 228 233 246 215 191 215 180 181 181 189
246 247 343 286 260 253 265 261 253 268 221 253 234 245 271 281 272 304 293 256 198 207 205 188 214 215 217 228 203 204 211 221 223 222 223 233 243 225 197 242 194 203 168 195 192
256 215 280 277 274 270 234 267 294 304 287 241 261 241 244 254 345 313 322 307 302 210 198 186 209 212 220 214 227 223 207 212 221 224 225 225 229 245 233 209 230 203 178 202 196